This is the latest recevied weather packets stored in our database for station/object KB3FKJ. If no packets are shown the sender has not sent any weather packets the latest 10 day(s).
| Time | Temp. | Humidity | Pressure | Rain* | Wind** | Luminosity | Snow |
|---|---|---|---|---|---|---|---|
| 1777978320 | 15° C | 81% | 1008.5 hPa | 0 mm | - | 2 W/m² | - |
| 1777978016 | 17.22° C | 70% | 1008.6 hPa | 0 mm | - | 2 W/m² | - |
| 1777977714 | 17.22° C | 63% | 1008.5 hPa | 0 mm | - | 5 W/m² | - |
| 1777977410 | 17.22° C | 64% | 1008.4 hPa | 0 mm | - | 9 W/m² | - |
| 1777977108 | 16.67° C | 63% | 1008.3 hPa | 0 mm | - | 10 W/m² | - |
| 1777976805 | 16.67° C | 62% | 1008.2 hPa | 0 mm | - | 7 W/m² | - |
| 1777976503 | 16.67° C | 62% | 1008.3 hPa | 0 mm | - | 5 W/m² | - |
| 1777976202 | 16.67° C | 61% | 1008.2 hPa | 0 mm | - | 4 W/m² | - |
| 1777975898 | 16.67° C | 61% | 1008.2 hPa | 0 mm | - | 2 W/m² | - |
| 1777975594 | 16.67° C | 61% | 1007.9 hPa | 0 mm | - | 1 W/m² | - |
| 1777975291 | 17.22° C | 60% | 1008.1 hPa | 0 mm | - | 1 W/m² | - |
| 1777974987 | 16.67° C | 61% | 1008.1 hPa | 0 mm | - | 0 W/m² | - |
| 1777974684 | 16.67° C | 62% | 1008.1 hPa | 0 mm | - | 0 W/m² | - |
| 1777974380 | 16.67° C | 62% | 1008 hPa | 0 mm | - | 0 W/m² | - |
| 1777974077 | 16.67° C | 62% | 1008.1 hPa | 0 mm | - | 0 W/m² | - |
| 1777973773 | 16.67° C | 62% | 1007.9 hPa | 0 mm | - | 0 W/m² | - |
| 1777973470 | 16.67° C | 62% | 1008 hPa | 0 mm | - | 0 W/m² | - |
| 1777973167 | 16.67° C | 61% | 1008 hPa | 0 mm | - | 0 W/m² | - |
| 1777972866 | 16.67° C | 61% | 1007.8 hPa | 0 mm | - | 0 W/m² | - |
| 1777972562 | 17.22° C | 60% | 1007.9 hPa | 0 mm | - | 0 W/m² | - |
| 1777972261 | 16.67° C | 60% | 1007.9 hPa | 0 mm | - | 0 W/m² | - |
| 1777971958 | 17.22° C | 59% | 1007.7 hPa | 0 mm | - | 0 W/m² | - |
| 1777971656 | 17.22° C | 59% | 1007.9 hPa | 0 mm | - | 0 W/m² | - |
| 1777971353 | 17.22° C | 59% | 1007.7 hPa | 0 mm | - | 0 W/m² | - |
| 1777971052 | 16.67° C | 60% | 1007.6 hPa | 0 mm | - | 0 W/m² | - |
* Rain latest hour (hover to see other rain measurements)
** Current wind speed in m/s (hover to see current wind gust speed)